288  
ASUS46 KPDT 220025  
RWRPDT  
PENDLETON REGIONAL WEATHER ROUNDUP  
NATIONAL WEATHER SERVICE PENDLETON OREGON  
400 PM PST WED FEB 21 2018  
 
NOTE: FAIR INDICATES FEW OR NO CLOUDS BELOW 12,000 FEET WITH NO  
SIGNIFICANT WEATHER AND/OR S TO VISIBILITY
.  
 
# INDICATES UNOFFICIAL STATION AND DATA  
 
WAZ520-220110-  
EAST SLOPES OF WASHINGTON CASCADES  
 
CITY SKY/WX TMP DP RH WIND PRES REMARKS
 
#BULLFROG N/A 26 16 65 E1 N/A  
#CLE ELUM HS N/A 27 15 60 CALM 30.05F  
#EASTON DOT N/A 23 19 84 CALM N/A  
#ELK HTS DOT N/A 24 24 100 E3 N/A  
#GLENWOOD N/A 27 19 71 CALM 30.27  
#NELSON 3SW N/A 22 19 88 CALM 30.48F  
#NILE N/A 26 16 65 SE1 29.44S  
#TEANAWAY 4NE N/A 25 15 65 S1 N/A  
#TROUT LAKE 1NE N/A 26 18 71 E1 30.27  
#TROUT LAKE 1E N/A 29 20 69 CALM 30.17  

 
 
WAZ521-220110-  
SIMCOE HIGHLANDS  
 
CITY SKY/WX TMP DP RH WIND PRES REMARKS
 
#BICKLETON HS N/A 19 10 67 W13 29.71F WCI 6  
#SATUS PASS DOT N/A 20 7 56 N3 N/A  
#CENTERVILLE 1SWN/A 22 13 68 CALM 30.27S  
#GOLDENDALE 1NE N/A 27 1 32 S2 N/A  
#GOLDENDALE 4W N/A 25 -1 31 SW7 30.20F  
#GOODNOE HILLS N/A 27 9 46 W10 30.11F  
#LYLE 6NE N/A 23 16 74 CALM 30.30  
#PITT 4SE N/A 21 14 74 CALM 30.32F  

 
 
WAZ026-220110-  
KITTITAS VALLEY  
 
CITY SKY/WX TMP DP RH WIND PRES REMARKS
 
ELLENSBURG AP PTCLDY 28 13 53 CALM 30.14  
6HR MIN TEMP: 21; 6HR MAX TEMP: 28;  
 
#ELLENSBURG CWU N/A 27 15 60 S1 30.20  
#ELLENSBURG 3NE N/A 25 15 65 CALM 28.21  
#ELLENSBURG 1E N/A 27 15 60 CALM 30.31F  
#KITTITAS 3S N/A 27 15 60 CALM 30.24  
#MANASTASH RDG N/A 23 23 100 S10 N/A  
#ROCKY CYN DOT N/A 26 13 57 E1 N/A  
#RYEGRASS DOT N/A 23 11 59 CALM N/A  

 
 
WAZ027-220110-  
YAKIMA VALLEY  
 
CITY SKY/WX TMP DP RH WIND PRES REMARKS
 
SUNNYSIDE AP MOCLDY 29 11 46 SE6 30.23S  
YAKIMA AIRPORT CLOUDY 32 17 53 S6 30.20  
6HR MIN TEMP: 25; 6HR MAX TEMP: 33;  
 
YAKIMA-VAGABOND MOCLDY 29 14 53 SW5 30.16  
6HR MIN TEMP: 24; 6HR MAX TEMP: 30;  
 
#DONALD 2NE N/A 30 -16 12 NW5 29.04F  
#GRANDVIEW N/A 29 11 46 SE3 30.29F  
#MABTON N/A 30 19 63 SE5 30.22F  
#NACHES 2SW N/A 27 18 68 S2 30.15S  
#OUTLOOK DOT N/A 29 15 55 E6 30.19  
#PARKER DOT N/A 31 13 47 CALM 30.21  
#TERRACE HTS N/A 29 15 55 S2 30.24  
#TOPPENISH N/A 31 17 56 CALM 30.19  
#I82 S UMTANUM RN/A 26 12 55 SW3 N/A  
#UNION GAP DOT N/A 31 14 49 S1 30.25  
#W YAKIMA N/A 27 16 63 SW5 30.27S  
#WHITE SWAN 5E N/A 30 19 63 CALM 30.28F  
#WILEY CITY 3W N/A 28 14 55 CALM 30.14S  
#ZILLAH DOT N/A 30 15 53 E8 N/A  

 
 
WAZ028-220110-  
LOWER COLUMBIA BASIN...WASHINGTON  
 
CITY SKY/WX TMP DP RH WIND PRES REMARKS
 
PASCO FAIR 33 14 45 SW8 30.27  
6HR MIN TEMP: 27; 6HR MAX TEMP: 34;  
 
PROSSER AWOS N/A 28 12 50 MISG 30.27S  
RICHLAND AWOS FAIR 32 17 53 S7 30.26F  
#BENTON CITY N/A 29 12 48 CALM 30.19F  
#CONNELL 5N N/A 29 14 53 S1 30.29  
#CONNELL 5NW N/A 28 14 55 S1 30.24  
#ELTOPIA 6NW N/A 30 15 53 CALM 29.19  
#KAHLOTUS N/A 29 14 53 CALM 30.28S  
#KENNEWICK 3S N/A 31 18 58 S2 30.30  
#PATERSON N/A 29 17 60 NW1 30.28  
#PROSSER DOT N/A 30 13 49 S7 30.25F  
#SAGEMOOR 2W N/A 30 13 49 S5 30.15  
#TOUCHET 2S N/A 32 16 51 CALM 30.27  
#WEST PASCO N/A 34 16 47 CALM 30.28S  

 
 
WAZ029-220110-  
FOOTHILLS OF THE BLUES...WASHINGTON  
 
CITY SKY/WX TMP DP RH WIND PRES REMARKS
 
WALLA WALLA AP FAIR 30 17 58 S5 30.22  
6HR MIN TEMP: 22; 6HR MAX TEMP: 31;  
 
#CLYDE 6NW N/A 28 11 48 SW5 30.28  
#DELANEY DOT N/A 32 14 47 CALM 30.24F  
#LOWDEN 2SE N/A 32 15 49 CALM 30.22  
#PLEASANT VIEW 1N/A 27 15 60 S5 30.33F  
#PRESCOTT N/A 32 20 61 CALM 30.27F  
#WHITMAN COLLEGEN/A 30 17 58 S1 30.34S  
#WAITSBURG 6SSE N/A 27 16 63 W2 30.12F  
#WALLA WALLA 5E N/A 29 21 72 SW5 N/A  
#WHITMAN MISSIONN/A 33 17 51 CALM 30.31  

 
 
WAZ030-220110-  
BLUE MOUNTAINS...WASHINGTON  
 
CITY SKY/WX TMP DP RH WIND PRES REMARKS
 
#DIXIE 5SE N/A 20 18 92 W6 30.02  

 
 
ORZ009-041-WAZ024-220110-  
COLUMBIA RIVER GORGE  
 
CITY SKY/WX TMP DP RH WIND PRES REMARKS
 
HOOD RIVER AP MOCLDY 32 19 58 CALM 30.25F  
THE DALLES AP CLOUDY 31 14 49 CALM 30.29  
6HR MIN TEMP: 26; 6HR MAX TEMP: 33;  
 
#ARLINGTON AIRPON/A 27 15 60 SW5 30.30F  
#ARLINGTON HS N/A 30 13 49 N1 30.20F  
#CELILO DOT N/A 33 11 39 CALM N/A  
#LYLE N/A 31 18 58 CALM 30.31  
#MARYHILL N/A 27 15 60 N3 N/A  
#MURDOCK N/A 30 18 60 E1 30.25F  
#RUFUS DOT N/A 32 N/A N/A W6 N/A  
#SMITHVILLE N/A 30 17 58 W1 30.25F  
 

 
 
ORZ510-220110-  
NORTH CENTRAL OREGON  
 
CITY SKY/WX TMP DP RH WIND PRES REMARKS
 
#ANTELOPE N/A 23 16 74 CALM 30.18  
#CHENOWITH 1W N/A 26 14 60 S3 N/A  
#COW CYN RST AREN/A 22 13 68 SW5 N/A  
#DUFUR N/A 24 14 65 CALM 30.27  
#DUFUR 9E N/A 22 15 74 CALM 30.37  
#GRASS VALLEY 1SN/A 23 18 81 NW2 30.15S  
#KENT DOT N/A 24 10 54 SW6 N/A  
#MAUPIN SCHOOL N/A 30 18 60 N5 30.27S  
#SHANIKO 5WSW N/A 19 N/A N/A S8 N/A  
#SHANIKO 4NW N/A 19 17 92 SW1 30.06  
#TYGH VALLEY 2NEN/A 29 18 63 N3 30.28  
#WAPANITIA AIRPON/A 25 18 74 NE7 30.31  
#WASCO DOT N/A 26 11 52 E1 N/A  
#WASCO 5NE N/A 22 13 68 W2 30.30  

 
 
ORZ511-220110-  
CENTRAL OREGON  
 
CITY SKY/WX TMP DP RH WIND PRES REMARKS
 
BEND AIRPORT PTCLDY 28 18 66 CALM 30.08R  
PRINEVILLE AP CLOUDY 25 19 78 N3 30.08F  
REDMOND AIRPORT MOCLDY 31 20 63 E5 30.08  
6HR MIN TEMP: 20; 6HR MAX TEMP: 31;  
 
#ASHWOOD SCHOOL N/A 25 18 74 NW1 30.08S  
#BEND 1SW N/A 26 20 78 CALM N/A  
#BEND-AWBREY N/A 27 21 78 E3 30.23S  
#BEND-KIM LN N/A 27 21 78 N1 30.18S  
#CULVER N/A 25 17 71 CALM 30.09  
#CULVER 8W N/A 29 15 55 CALM 30.11R  
#LAKE BILLY CHINN/A 26 N/A N/A NE2 30.21R  
#POWELL BUTTE N/A 28 15 58 CALM 30.00F  
#PRINEVILLE N/A 28 21 75 CALM 30.33S  
#PRINEVILLE 3N N/A 27 20 74 CALM 30.23F  
#WARM SPRINGS N/A 29 20 69 CALM 30.09S  
 

 
 
 
ORZ509-220110-  
EAST SLOPES OF OREGON CASCADES  
 
CITY SKY/WX TMP DP RH WIND PRES REMARKS
 
SISTERS AWOS N/A 27 19 71 SW5 30.04  
#BLUE BOX PASS N/A 23 N/A N/A CALM N/A  
#CAMP SHERMAN N/A 32 20 61 CALM 30.27F  
#LA PINE DOT N/A 31 19 61 W13 N/A WCI 21  
#LA PINE 4NW N/A 30 18 60 NW1 30.25  
#LAVA BUTTE DOT N/A 29 16 58 SW2 N/A  
#SISTERS ODOT N/A 27 17 65 SW1 N/A  
#SISTERS 3N N/A 28 13 53 CALM 30.32F  
#SUNRIVER N/A 31 20 63 S2 30.22S  
#TUMALO 3W N/A 27 19 71 CALM 30.11  
#WANOGA BUTTE D N/A 23 11 59 W5 N/A  
 

 
 
ORZ044-220110-  
LOWER COLUMBIA BASIN...OREGON  
 
CITY SKY/WX TMP DP RH WIND PRES REMARKS
 
HERMISTON FAIR 30 17 58 S7 30.25  
6HR MIN TEMP: 25; 6HR MAX TEMP: 32;  
 
#BOARDMAN SCHOOLN/A 31 18 58 SW3 30.27  
#BOARDMAN 8SW N/A 28 17 63 SW3 30.30S  
#ECHO 8SW N/A 28 16 60 CALM 30.27R  
#I-84 EX 198 DOTN/A 27 17 65 NE2 N/A  
#IONE SCHOOL N/A 25 14 62 W1 30.32  
#UMATILLA N/A 33 15 47 CALM 30.23  

 
 
ORZ507-220110-  
NORTHERN FOOTHILLS OF THE BLUES  
 
CITY SKY/WX TMP DP RH WIND PRES REMARKS
 
PENDLETON AIRPT CLOUDY 26 18 71 S7 30.20  
6HR MIN TEMP: 20; 6HR MAX TEMP: 28;  
 
#ADAMS 3WNW N/A 26 21 81 CALM 30.28  
#ATHENA N/A 26 20 78 CALM 30.32  
#CAYUSE N/A 27 19 71 CALM 30.29  
#HELIX SCHOOL N/A 27 21 78 N6 30.29  
#HELIX 3N N/A 26 20 78 S9 30.17  
#HOLDMAN 5SE N/A 27 19 71 W2 30.19  
#HOLDMAN 6E N/A 26 18 71 CALM 30.08  
#M-F GROVE ELEM N/A 30 17 58 CALM 30.19  
#M-FREEWATER 5SEN/A 28 20 71 CALM 30.19  
#PENDLETON DNTN N/A 28 14 55 SW1 N/A  
#PDT AQUATIC CTRN/A 27 16 63 SE3 30.21S  
#PDT SUNRIDGE N/A 26 19 74 SE3 30.24  
#PENDLETON 6SE N/A 24 18 77 S1 30.25F  
#PENDLETON 7NW N/A 29 19 66 CALM 25.40  
#PILOT ROCK 1S N/A 23 12 62 CALM 30.18S  
#PILOT ROCK N/A 27 17 65 CALM 30.19S  
#TUTUILLA N/A 22 17 81 CALM 30.25  
#UMAPINE 2E N/A 32 18 56 CALM 30.21F  
 

 
 
ORZ508-220110-  
SOUTHERN FOOTHILLS OF THE BLUES  
 
CITY SKY/WX TMP DP RH WIND PRES REMARKS
 
#AJAX N/A 22 8 54 CALM 30.29  
#CONDON 5W N/A 19 16 88 CALM 30.03F  
#FOSSIL SCHOOL N/A 27 18 68 W3 30.05  
#HEPPNER EOC N/A 25 17 71 SW1 30.23  
#HEPPNER 4NE N/A 23 20 88 CALM 30.28  
#LEXINGTON 2SE N/A 27 20 74 NW5 30.17S  
#MIKKALO N/A 23 10 57 CALM 30.30R  
#OLEX 4N N/A 24 16 71 CALM 30.20  
#RUGGS 5NE N/A 26 12 55 S3 30.27S  
#RUGGS 2SW N/A 24 22 92 CALM 30.32  
 

 
 
ORZ502-503-220110-  
BLUE MOUNTAINS  
 
CITY SKY/WX TMP DP RH WIND PRES REMARKS
 
MEACHAM MOCLDY 21 14 74 CALM 30.04  
6HR MIN TEMP: 18; 6HR MAX TEMP: 26;  
 
#BATTLE MTN DOT N/A 18 12 77 CALM N/A  
#GRANITE N/A 25 7 46 S2 29.62F  
#HARDMAN 10S N/A 20 16 84 CALM 30.41S  
#LADD CYN SMT N/A 24 14 65 SE7 N/A  
#LADD CREEK ODOTN/A 27 15 60 S7 N/A  
#N POWDER DOT N/A 27 15 60 SE7 N/A  
#PIKES PEAK N/A 17 14 88 S2 27.99  
#SUMMERVILLE 5NWN/A 27 17 65 CALM 28.00S  
#TOLLGATE N/A 18 17 96 CALM 30.01  
#TROY SCHOOL N/A 35 20 54 SE1 30.08  
#UKIAH N/A 26 19 74 S1 30.16  
#WESTON 4E N/A 20 18 92 CALM 30.27  

 
 
ORZ505-220110-  
JOHN DAY BASIN  
 
CITY SKY/WX TMP DP RH WIND PRES REMARKS
 
JOHN DAY FAIR 28 20 71 W3 30.05S  
#ANTELOPE 9ESE N/A 31 20 63 E2 N/A  
#DAYVILLE SCHOOLN/A 31 19 61 W2 30.07  
#MITCHELL 8NW N/A 23 18 81 CALM 30.32  
#MONUMENT HS N/A 30 18 60 CALM 30.09S  
#MT. VERNON 5SE N/A 25 18 74 W2 29.98S  
#SPRAY SCHOOL N/A 32 N/A N/A CALM N/A  

 
 
ORZ506-220110-  
OCHOCO AND JOHN DAY HIGHLANDS  
 
CITY SKY/WX TMP DP RH WIND PRES REMARKS
 
#HORSE RIDGE DO N/A 27 18 68 N3 N/A  
#IZEE 6NW N/A 29 18 63 S1 N/A  
#KEYES SMT DOT N/A 21 17 84 NW6 N/A  
#PAULINA ODOT N/A 27 17 65 SW5 N/A  
#PINE MTN OBS N/A 22 20 92 CALM N/A  
#PRAIRIE CITY N/A 28 16 60 CALM 30.20F  
#SENECA N/A 24 N/A N/A NW1 N/A  
#SENECA 9NW N/A 22 17 81 CALM 30.20  

 
 
ORZ049-220110-  
GRANDE RONDE VALLEY  
 
CITY SKY/WX TMP DP RH WIND PRES REMARKS
 
LA GRANDE CLOUDY 28 17 63 S10 30.10  
#COVE SCHOOL N/A 29 19 66 CALM 30.09  
#COVE 6NW N/A 29 19 66 S6 30.25F  
#ELGIN 3N N/A 26 8 46 SW1 30.06S  
#ELGIN 1E N/A 30 18 60 CALM N/A  
#IMBLER SCHOOL N/A 26 18 71 CALM 30.06  
#ISLAND CITY 4N N/A 36 30 79 CALM 30.29S  
#LADD CYN DOT N/A 27 16 63 S13 N/A WCI 16  
#UNION 1S N/A 28 18 66 S1 30.26F  

 
 
ORZ050-220110-  
WALLOWA COUNTY  
 
CITY SKY/WX TMP DP RH WIND PRES REMARKS
 
#ENTERPRISE HS N/A 22 13 68 CALM 30.18  
#IMNAHA SCHOOL N/A 32 21 63 N7 30.12  
#IMNAHA 10S N/A 30 16 55 SW6 30.06S  
#JOSEPH 3N N/A 19 7 59 CALM 30.07  
#LOSTINE N/A 25 13 60 CALM 30.10  
#LOSTINE 3SE N/A 22 11 62 NW2 30.10F  
#MT HOWARD 8000 N/A 9 4 80 W3 29.73  
#WALLOWA LAKE N/A 20 13 74 CALM 30.02R  
#WALLOWA SCHOOL N/A 25 15 65 CALM 30.05S  
 

 
 
CLICK HERE TO GO TO PREVIOUS BULLETINS.

The Nexlab OR Page
The Nexlab WA Page Main Text Page